Gulkana, AK

2:21 PM AKST on February 23, 2018 (GMT -0900)
Gulkana

Weather History for PAGK - May, 2013

Change the Weather History Date:

Saturday, May 4, 2013

  Actual Average Record
Temperature  
Mean Temperature 36 °F -  
Max Temperature 37 °F 50 °F 68 °F (2004)
Min Temperature 32 °F 28 °F 19 °F (1971)
Degree Days  
Heating Degree Days 30    
Moisture  
Dew Point 33 °F    
Average Humidity 95    
Maximum Humidity 100    
Minimum Humidity 84    
Precipitation  
Precipitation 0.28 in - - ()
Sea Level Pressure  
Sea Level Pressure 29.75 in    
Wind  
Wind Speed 5 mph (NNW)    
Max Wind Speed 13 mph    
Max Gust Speed -    
Visibility 6 miles    
Events Rain , Snow    
Averages and records for this station are not official NWS values.
T = Trace of Precipitation, MM = Missing Value Source: NWS Daily Summary

Daily Weather History Graph

Daily Weather History Graph

Search for Another Location

Airport or City:

Trip Planner

Search our weather history database for the weather conditions in past years. The results will help you decide how hot, cold, wet, or windy it might be!

Date:

Astronomy

May. 04, 2013 Rise Set
Actual Time 5:17 AM AKDT 10:02 PM AKDT
Civil Twilight 4:13 AM AKDT 11:06 PM AKDT
Nautical Twilight 2:11 AM AKDT 1:06 AM AKDT
Astronomical Twilight Sun does not rise Sun does not rise
Moon 3:56 AM AKDT (5/4) 3:42 PM AKDT (5/4)
Length of Visible Light 18h 52m
Length of Day
16h 45m
Waning Crescent, 25% of the Moon is Illuminated
May 4
Waning Crescent
May 9
New
May 17
First Quarter
May 24
Full
May 31
Last Quarter

Hourly Weather History & Observations

Time (AKDT) Temp. Windchill Dew Point Humidity Pressure Visibility Wind Dir Wind Speed Gust Speed Precip Events Conditions
12:53 AM 37.0 °F 28.9 °F 33.1 °F 86% 29.87 in 10.0 mi South 12.7 mph - N/A   Overcast
1:53 AM 36.0 °F 28.0 °F 33.1 °F 89% 29.85 in 10.0 mi SSE 11.5 mph - N/A   Overcast
2:53 AM 35.1 °F 30.1 °F 33.1 °F 92% 29.83 in 10.0 mi South 5.8 mph - N/A   Overcast
3:53 AM 35.1 °F - 32.0 °F 89% 29.82 in 10.0 mi Calm Calm - N/A   Overcast
4:53 AM 35.1 °F - 32.0 °F 89% 29.80 in 10.0 mi Calm Calm - 0.00 in Rain Light Rain
5:40 AM 34.0 °F 29.8 °F 32.0 °F 92% 29.73 in 9.0 mi North 4.6 mph - 0.02 in Rain Light Rain
5:53 AM 34.0 °F 31.0 °F 33.1 °F 96% 29.78 in 10.0 mi North 3.5 mph - 0.02 in Rain Light Rain
6:03 AM 35.1 °F 31.0 °F 33.1 °F 92% 29.72 in 10.0 mi North 4.6 mph - 0.00 in Rain Light Rain
6:53 AM 35.1 °F 32.2 °F 33.1 °F 92% 29.76 in 10.0 mi NNW 3.5 mph - 0.03 in Rain Light Rain
7:53 AM 35.1 °F 32.2 °F 34.0 °F 96% 29.75 in 10.0 mi NNE 3.5 mph - 0.04 in Rain Light Rain
8:53 AM 36.0 °F 32.1 °F 34.0 °F 93% 29.72 in 10.0 mi NNE 4.6 mph - 0.03 in Rain Light Rain
9:53 AM 34.0 °F 31.0 °F 33.1 °F 96% 29.71 in 5.0 mi NNE 3.5 mph - 0.05 in Rain , Snow Light Snow
10:53 AM 34.0 °F - 33.1 °F 96% 29.71 in 5.0 mi Calm Calm - 0.07 in Rain , Snow Light Snow
11:29 AM 35.1 °F - 34.0 °F 96% 29.64 in 7.0 mi Calm Calm - 0.02 in Rain Light Rain
11:53 AM 34.0 °F - 33.1 °F 96% 29.70 in 8.0 mi Calm Calm - 0.04 in Rain , Snow Light Snow
12:53 PM 36.0 °F 30.3 °F 34.0 °F 93% 29.70 in 8.0 mi South 6.9 mph - 0.01 in Rain Light Rain
1:53 PM 37.0 °F 33.3 °F 35.1 °F 93% 29.71 in 10.0 mi SSW 4.6 mph - 0.02 in Rain Light Rain
2:53 PM 37.0 °F 32.4 °F 35.1 °F 93% 29.70 in 10.0 mi SW 5.8 mph - 0.01 in Rain Light Rain
3:53 PM 36.0 °F 33.3 °F 35.1 °F 97% 29.72 in 10.0 mi West 3.5 mph - 0.05 in Rain Light Rain
4:53 PM 36.0 °F - 34.0 °F 93% 29.73 in 7.0 mi Calm Calm - 0.03 in Rain Light Rain
5:53 PM 34.0 °F 31.0 °F 33.1 °F 96% 29.74 in 5.0 mi NW 3.5 mph - 0.03 in Rain , Snow Light Snow
6:53 PM 33.1 °F - 32.0 °F 96% 29.75 in 5.0 mi Calm Calm - 0.05 in Rain , Snow Light Snow
7:10 PM 33.1 °F - 32.0 °F 96% 29.68 in 2.0 mi Calm Calm - 0.02 in Rain , Snow Light Snow
7:32 PM 32.0 °F - 32.0 °F 100% 29.69 in 2.0 mi Calm Calm - 0.05 in Rain , Snow Light Snow
7:53 PM 32.0 °F - 32.0 °F 100% 29.76 in 2.0 mi Calm Calm - 0.07 in Rain , Snow Light Snow
7:58 PM 32.0 °F - 32.0 °F 100% 29.69 in 1.5 mi Calm Calm - 0.01 in Snow Light Snow
8:53 PM 33.1 °F - 32.0 °F 96% 29.78 in 1.0 mi Calm Calm - 0.05 in Snow Light Snow
9:27 PM 32.0 °F - 32.0 °F 100% 29.72 in 1.0 mi Calm Calm - 0.02 in Snow Light Snow
9:44 PM 32.0 °F 28.7 °F 32.0 °F 100% 29.72 in 0.8 mi NW 3.5 mph - 0.03 in Snow Light Snow
9:51 PM 32.0 °F 28.7 °F 32.0 °F 100% 29.73 in 1.0 mi NNW 3.5 mph - 0.03 in Snow Light Snow
9:52 PM 32.0 °F 28.7 °F 32.0 °F 100% 29.81 in 1.0 mi NNW 3.5 mph - 0.03 in Snow Light Snow
10:21 PM 33.1 °F 27.7 °F 32.0 °F 96% 29.74 in 2.0 mi North 5.8 mph - 0.02 in Snow Light Snow
10:28 PM 33.1 °F 27.7 °F 32.0 °F 96% 29.75 in 1.5 mi North 5.8 mph - 0.03 in Snow Light Snow
10:53 PM 32.0 °F 26.4 °F 30.9 °F 96% 29.84 in 2.0 mi North 5.8 mph - 0.04 in Snow Light Snow
11:01 PM 32.0 °F 26.4 °F 30.9 °F 96% 29.76 in 1.2 mi NNE 5.8 mph - 0.00 in Snow Light Snow
11:53 PM 32.0 °F 26.4 °F 30.9 °F 96% 29.86 in 2.0 mi NNE 5.8 mph - 0.03 in Snow Light Snow